Content
SEND FEEDBACK

Daily
Averages
Monthly
Summary
United States of America

BANNING, CALIFORNIA


Home > North America > United States > California
Elevation: 2609 feet     Latitude: 33 56N     Longitude: 116 56W

WEATHER
 
SELECT A DAY
Number of Records: 165,762;   Date Range: 1/1/95 - 9/16/14
 
SHARE

PRINT THIS DATA

[ ← Previous Day ]
WEATHER ALMANAC - FEBRUARY 13, 2013
[ Next Day → ]
[ °C ]   °F
Weather ElementAverageHighLow
Temperature51 °F71.1 °F (12:52 pm)30 °F (4:52 am)
Dewpoint24.4 °F28 °F (8:52 pm)21 °F (11:52 am)
Humidity41.2 %73 % (3:52 am)15 % (1:52 pm)
Barometer30.16 in30.25 in (7:52 am)30.08 in (4:52 pm)
Wind Speed3.3 mph9.2 mph (2:52 pm)
Weather ElementAverage
Visibility10 mi
Wind DirectionESE (129.1 °)

Weather ElementTotal
Precipitation---
Heating Degree Days14.5 (Base 65)
Growing Degree Days0.5 (Base 50)
Averaged from 23 records on February 13, 2013
WEATHER CONDITIONS BREAKOUT
WIND DIRECTION BREAKOUT
WEATHER BY HOUR - FEBRUARY 13, 2013
[ °C ]   °F
Local TimeTemperatureDewpointHumidityBarometerVisibilityWind DirectionWind SpeedGust SpeedPrecipitationEventsConditions
1:52 AM37.0 °F24.1 °F59 %30.23 in10.0 miNorth (350°)3.5 mphClear
2:52 AM36.0 °F24.1 °F62 %30.21 in10.0 miCalmClear
3:52 AM32.0 °F24.1 °F73 %30.21 in10.0 miCalmClear
4:52 AM30.0 °F21.9 °F72 %30.21 in10.0 miCalmClear
5:52 AM30.9 °F21.9 °F69 %30.21 in10.0 miCalmClear
6:52 AM32.0 °F21.9 °F66 %30.23 in10.0 miNNE (30°)3.5 mphClear
7:52 AM43.0 °F27.0 °F53 %30.25 in10.0 miWSW (240°)3.5 mphClear
8:52 AM53.1 °F27.0 °F37 %30.24 in10.0 miCalmClear
9:52 AM60.1 °F26.1 °F27 %30.24 in10.0 miCalmClear
10:52 AM64.9 °F24.1 °F21 %30.22 in10.0 miSE (140°)4.6 mphClear
11:52 AM69.1 °F21.0 °F16 %30.18 in10.0 miVariable3.5 mphClear
12:52 PM71.1 °F21.9 °F16 %30.14 in10.0 miSSE (150°)4.6 mphClear
1:52 PM71.1 °F21.0 °F15 %30.11 in10.0 miSouth (170°)6.9 mphClear
2:52 PM71.1 °F21.9 °F16 %30.10 in10.0 miSE (140°)9.2 mphClear
3:52 PM70.0 °F25.0 °F18 %30.09 in10.0 miSSE (150°)8.1 mphClear
4:52 PM66.0 °F23.0 °F20 %30.08 in10.0 miSE (140°)6.9 mphClear
5:52 PM57.9 °F25.0 °F28 %30.09 in10.0 miSouth (170°)4.6 mphClear
6:52 PM51.1 °F24.1 °F35 %30.10 in10.0 miCalmClear
7:52 PM48.0 °F26.1 °F42 %30.11 in10.0 miNorth (350°)3.5 mphClear
8:52 PM46.0 °F28.0 °F50 %30.12 in10.0 miNNW (340°)4.6 mphClear
9:52 PM46.9 °F28.0 °F48 %30.12 in10.0 miNorth (350°)4.6 mphClear
10:52 PM39.9 °F25.0 °F55 %30.13 in10.0 miWSW (250°)3.5 mphClear
11:52 PM46.0 °F28.0 °F50 %30.13 in10.0 miCalmClear
Hourly data recorded from KTRM, located miles away from Banning, California







STORIES FROM OUR PARTNERS